Wind_Gust
17 19 14 15 16 19 20 21 22 27 28 27 29 21 23 15 11 13 15 15 18 15 12 12 15 15 14 21 23 22 25 27 24 17 18 17 12 16 13 15 13 18 18 15 16 16 15 11 8 9 7 7 7 8 8 12 14 14 13 11 13 14 12 9 17 17 18 17 16 13 14 14 12 12 11 12 11 10 12 16 17 17 18 19 19 17 17 16 16 18 17 17 17 18 20 21 22
19 13 13 15 20 21 22 21 29 20 25 25 28 18 20 15 15 16 17 11 19 21 15 16 16 14 13 15 17 20 28 26 24 29 23 19 19 18 22 13 14 19 18 16 13 15 16 17 9 10 8 8 7 8 10 13 14 14 14 14 14 17 15 9 11 16 17 18 16 14 15 14 14 14 12 10 10 10 11 13 17 17 20 19 19 18 16 16 16 17 17 16 17 17 19 21 23
17 13 17 18 21 24 22 20 26 25 24 24 23 25 21 15 16 15 17 16 18 17 16 17 16 14 15 13 16 18 23 19 22 22 21 14 14 21 17 15 16 15 17 17 15 13 16 17 9 10 8 7 7 8 10 14 13 15 14 14 15 15 14 14 7 13 15 17 17 16 14 14 14 14 14 13 11 9 10 11 15 15 18 19 18 19 16 15 15 15 16 16 16 17 19 21 23
19 17 19 20 23 21 24 23 26 27 24 22 26 23 16 13 16 21 19 18 18 15 17 19 15 13 17 19 20 21 21 22 23 18 22 21 23 19 16 13 14 16 16 16 15 14 15 15 9 9 8 7 6 8 9 13 15 16 14 13 16 17 15 18 15 12 13 14 16 16 13 13 14 16 14 12 11 9 12 12 13 12 14 16 16 15 15 14 14 15 15 15 16 18 19 20 22
19 18 20 22 24 24 25 25 25 28 27 19 21 25 17 16 22 18 17 15 14 13 10 19 20 13 24 23 17 18 24 21 21 19 25 19 17 19 15 13 17 17 18 18 17 18 18 15 10 9 10 8 6 6 7 10 13 15 16 13 15 16 14 17 17 15 15 14 13 14 14 13 14 14 12 11 10 12 13 12 12 11 11 11 11 11 11 10 12 14 14 15 17 19 19 20 21
19 19 19 22 26 28 28 25 26 28 26 19 19 17 16 16 19 19 18 16 15 10 10 11 14 18 18 20 24 24 17 15 16 18 18 18 17 19 16 16 17 19 19 18 20 18 20 18 16 16 18 17 10 6 6 9 12 13 15 15 16 17 15 13 12 15 16 17 14 14 14 15 13 13 12 12 10 13 14 13 12 11 11 11 11 11 11 10 11 12 13 16 18 20 19 20 19
22 20 23 22 28 23 24 25 24 24 29 16 18 15 15 19 20 19 21 19 13 15 10 11 13 20 20 23 25 23 18 16 18 20 18 17 21 21 16 20 19 20 23 24 24 23 22 19 18 21 22 22 19 15 8 6 10 13 15 16 15 15 14 14 13 12 16 17 15 14 15 15 12 12 11 12 11 11 11 11 11 11 11 11 11 11 12 12 12 13 14 17 18 18 19 18 18
19 24 21 24 23 24 26 26 28 24 21 20 14 12 15 17 19 19 20 18 21 20 12 12 12 11 22 12 21 19 19 21 20 16 17 19 21 21 17 19 19 21 25 28 28 27 29 23 17 19 22 21 19 18 15 11 6 12 15 17 17 14 14 13 14 13 13 15 17 15 15 14 13 12 11 11 11 11 10 11 11 12 12 11 13 16 16 14 14 15 17 18 18 18 18 18 18
21 25 14 24 26 24 24 28 26 23 21 12 18 14 9 16 17 19 20 15 17 12 16 13 14 17 22 20 22 19 22 19 19 15 18 19 20 19 22 21 22 25 30 27 27 25 25 23 17 14 15 16 15 13 11 11 13 9 11 14 15 13 13 12 14 14 13 14 15 15 15 15 12 10 9 9 11 11 11 11 12 11 12 12 16 17 17 16 15 16 17 17 17 17 18 17 17
23 24 20 26 22 26 24 26 28 21 17 14 12 19 16 17 17 19 18 18 17 15 16 11 11 14 21 22 22 17 22 18 18 20 19 20 21 20 20 21 21 23 29 27 25 20 21 13 15 15 13 14 11 10 8 10 14 4 9 12 12 12 12 13 12 13 14 14 13 13 13 13 12 12 10 11 12 11 10 11 11 11 12 14 17 17 17 16 16 16 17 17 17 17 17 17 17
26 26 20 24 24 25 24 24 26 15 14 15 12 16 15 18 17 18 19 18 16 17 15 11 15 17 18 21 26 20 19 18 18 21 20 20 21 21 20 20 22 22 29 29 25 23 19 18 19 16 15 13 12 8 4 4 7 6 10 11 12 12 12 12 12 12 14 13 13 12 13 13 12 11 10 12 12 11 11 10 11 11 11 14 16 17 16 16 16 16 16 15 15 14 14 16 15
24 23 23 24 24 23 21 25 21 17 17 17 19 16 16 18 17 17 13 17 15 17 16 15 19 17 19 19 20 19 18 17 19 19 20 20 22 20 19 22 21 24 27 25 26 24 22 22 19 18 15 13 8 8 9 8 6 4 10 11 12 12 12 12 13 13 12 12 11 11 12 12 12 12 11 11 10 11 11 11 11 11 11 13 15 17 16 14 15 15 14 13 14 14 12 13 14
26 19 22 24 24 23 21 23 16 14 17 20 19 21 16 16 19 15 16 14 17 16 16 11 19 13 19 19 23 20 19 17 18 18 20 21 20 22 20 21 21 23 26 28 26 26 22 19 20 19 14 13 7 9 10 8 5 3 7 10 10 12 11 12 12 12 11 12 11 11 12 12 12 12 12 11 11 11 11 12 11 12 12 12 15 17 16 16 15 16 16 16 15 13 12 12 13
27 20 21 25 23 25 25 18 14 18 21 20 18 18 17 17 17 17 17 17 19 16 18 13 11 11 23 20 21 21 22 18 18 18 19 19 19 21 19 22 18 20 20 23 27 26 20 20 20 17 17 14 11 12 10 8 6 3 7 10 11 11 11 11 12 11 12 12 12 12 12 13 12 11 12 12 11 10 11 12 12 12 13 12 13 17 18 16 15 16 16 15 14 12 12 13 12
28 18 22 24 26 20 18 25 20 17 23 24 23 19 19 12 12 13 18 19 18 17 16 13 16 18 23 18 23 24 23 20 17 17 16 16 18 18 20 20 19 18 20 21 21 26 26 22 17 15 14 16 17 15 13 14 7 5 6 8 10 10 11 11 11 11 12 12 12 12 13 14 14 14 12 11 10 11 12 12 13 12 12 14 14 18 19 16 15 14 15 14 13 13 13 13 12
23 19 20 23 25 20 21 25 16 18 22 20 24 19 18 15 12 15 14 20 27 15 15 20 10 19 17 15 24 28 23 21 17 16 16 15 14 16 19 19 21 21 19 18 18 19 25 26 21 15 14 15 15 16 16 16 9 4 4 7 9 8 10 11 11 11 12 13 12 12 13 18 17 19 17 20 12 11 12 15 13 12 13 14 13 17 18 17 14 14 13 12 11 11 11 11 11
20 21 22 24 25 20 17 23 16 25 22 21 21 22 23 21 14 11 11 11 18 18 11 13 15 9 18 22 26 27 23 18 16 15 14 14 14 14 15 18 21 21 19 18 16 16 17 19 22 17 15 15 13 15 15 17 15 7 6 6 4 6 9 11 11 11 12 12 13 12 13 21 20 21 22 20 17 21 10 12 13 14 13 14 13 16 17 16 14 12 12 10 8 8 8 9 9
20 24 23 23 23 20 15 17 19 19 19 20 19 21 20 19 19 16 17 15 15 16 14 15 14 14 15 21 20 23 22 18 15 15 14 13 12 16 15 14 14 17 19 20 16 16 15 15 16 17 14 14 14 14 16 15 15 12 16 16 15 14 10 11 16 19 15 19 14 19 20 21 20 17 20 16 22 20 16 12 13 14 14 15 13 13 14 13 12 10 11 11 9 8 11 18 15
24 23 24 24 21 17 15 13 16 17 16 16 17 18 18 19 19 22 23 18 17 18 17 18 18 17 16 17 23 21 18 17 15 13 12 10 10 12 13 16 13 13 14 17 17 15 13 12 14 15 16 13 14 14 12 14 16 16 15 18 17 9 13 18 18 18 19 18 20 21 20 17 17 16 18 22 19 15 19 12 12 14 13 15 14 13 14 13 11 9 9 9 9 9 16 14 16
23 23 23 24 18 17 8 11 12 14 16 15 17 16 18 20 20 23 23 20 17 19 21 20 20 19 19 20 21 21 18 18 15 13 13 10 13 12 10 11 14 13 13 14 16 14 13 12 13 12 11 14 12 14 14 13 13 12 17 17 16 15 16 17 16 17 18 16 16 17 17 12 17 15 15 17 18 22 19 14 13 14 15 15 16 16 16 15 13 11 9 9 8 12 15 14 17
22 26 25 20 15 13 14 14 10 9 11 15 14 16 15 18 16 20 17 17 18 18 19 19 20 20 20 20 21 19 19 17 16 14 12 13 11 12 13 12 14 12 11 16 16 13 12 11 9 11 11 9 15 12 13 15 11 11 14 14 10 14 14 16 16 16 16 16 19 21 19 13 21 19 16 19 16 19 18 23 20 21 21 21 18 19 20 23 19 21 18 17 18 17 16 9 10
14 25 16 15 12 15 16 11 9 9 10 13 14 16 19 16 12 18 15 20 13 15 22 15 12 19 20 20 19 19 19 18 17 16 13 13 11 11 12 14 12 12 12 16 15 14 11 14 12 9 9 10 7 12 11 16 10 11 17 13 12 14 15 17 17 14 14 12 14 21 23 24 16 18 14 16 13 14 20 22 23 22 20 21 22 19 21 22 21 21 22 22 20 17 11 11 10
23 20 16 14 15 16 14 14 11 10 17 12 16 16 15 15 17 15 14 21 17 15 17 14 9 17 20 17 18 18 18 17 16 16 15 14 13 13 12 12 13 15 16 15 14 13 12 12 12 11 10 9 7 8 18 17 17 14 15 15 13 12 13 16 16 16 14 13 20 20 13 17 13 15 13 16 19 20 20 23 22 21 22 22 22 20 19 21 20 20 19 16 16 13 13 13 11
24 21 18 14 11 11 11 15 11 10 12 15 12 15 15 14 17 17 17 15 12 13 8 12 12 16 19 18 16 16 17 17 15 14 14 14 13 15 14 14 14 15 16 14 15 13 12 14 14 12 11 9 6 10 8 14 14 14 13 13 15 18 17 17 15 14 14 17 15 16 16 16 14 21 22 18 18 18 19 20 21 21 22 21 22 20 18 20 18 17 16 16 15 14 15 12 14
23 21 13 13 14 12 12 13 12 10 9 10 10 13 18 14 16 12 17 12 10 10 9 11 13 17 17 15 17 16 16 16 15 14 13 17 16 15 14 16 15 16 16 14 14 14 13 13 12 13 10 8 9 8 7 10 12 14 13 13 13 12 15 16 18 17 14 15 17 19 16 15 11 15 15 14 18 15 18 22 23 22 20 21 20 20 17 17 17 18 16 15 13 13 12 11 13
21 19 13 14 16 14 13 13 11 12 13 11 14 18 12 12 10 18 16 13 11 10 13 14 15 15 18 16 16 16 16 17 16 16 15 17 17 15 15 15 16 16 15 15 14 13 12 14 13 14 11 10 9 6 7 10 8 11 13 12 13 9 11 10 14 15 14 13 16 17 16 16 16 12 9 12 14 18 15 17 20 20 23 20 18 17 14 15 16 16 14 14 15 13 13 13 11
20 12 14 16 14 15 14 16 14 12 12 10 18 17 16 15 16 24 23 16 14 14 15 16 16 14 16 17 16 16 17 17 17 16 16 16 16 16 14 13 16 17 14 15 14 13 11 13 13 14 16 11 10 12 9 9 8 9 9 9 11 10 11 13 10 12 14 16 15 16 16 17 17 17 11 7 9 13 11 17 21 23 22 21 18 17 16 14 14 13 16 16 14 14 14 13 14
14 13 12 12 14 15 15 14 12 15 19 15 15 18 14 14 18 26 19 18 16 16 17 17 18 18 18 17 18 16 17 17 19 16 17 17 18 17 15 15 16 15 16 15 15 14 13 14 15 14 14 12 11 12 9 10 9 9 9 8 9 10 8 8 13 11 8 11 14 16 16 16 13 16 14 13 11 12 18 14 19 22 23 18 18 15 18 15 15 17 17 13 12 11 11 11 11
12 16 18 18 17 21 18 20 17 15 17 14 11 19 20 22 23 20 16 15 16 17 18 18 18 19 18 19 19 19 19 19 18 18 17 17 16 17 15 16 16 16 18 15 17 15 14 13 13 12 14 11 11 12 11 10 10 10 9 9 10 7 6 7 7 7 6 7 9 11 14 16 16 13 12 14 10 15 15 11 17 19 18 17 16 15 16 15 14 13 13 11 13 13 13 12 13
15 18 21 20 20 24 23 19 16 16 13 11 11 24 22 29 24 20 18 17 16 18 19 19 19 18 19 18 18 19 17 19 18 18 18 16 16 17 17 16 14 16 19 19 16 16 14 13 13 12 12 14 12 13 11 12 11 9 8 10 10 10 8 6 8 6 7 8 9 8 8 13 15 13 15 13 15 15 13 11 20 20 19 14 14 16 18 16 16 15 15 15 11 15 14 12 13
24 19 21 23 21 27 27 25 18 18 19 14 15 24 25 21 24 21 17 17 19 19 20 18 20 18 19 19 18 19 18 17 18 16 16 14 16 18 18 16 13 14 18 18 17 17 14 14 13 13 11 12 13 13 12 12 11 12 12 12 11 10 7 7 8 6 6 6 8 6 6 8 14 14 14 13 14 16 15 12 23 22 18 16 13 17 16 15 16 16 15 16 17 15 17 17 16
23 20 24 23 24 17 25 21 20 21 21 17 18 24 27 16 21 21 18 18 18 19 19 19 18 18 16 18 17 18 19 18 17 17 15 15 16 18 18 17 15 13 18 18 19 17 17 14 12 13 10 11 10 10 10 10 10 10 10 9 11 9 9 9 7 8 9 6 6 7 6 7 8 9 11 13 12 15 17 15 16 17 15 9 11 18 18 16 16 17 15 16 16 18 18 16 16
22 22 15 23 23 21 19 23 19 21 13 18 23 22 19 19 22 20 18 19 19 19 19 18 18 17 17 18 17 17 18 19 19 20 19 18 17 17 18 18 17 15 16 17 18 18 16 15 12 12 11 10 8 9 8 8 9 9 10 11 10 10 11 9 8 7 7 7 8 9 10 10 10 9 8 8 7 14 17 19 17 13 9 8 8 11 19 18 17 18 17 16 16 18 20 19 17
23 22 23 19 17 20 17 20 18 19 19 21 24 29 23 18 20 18 19 20 20 20 19 18 18 18 18 19 19 20 18 18 21 20 20 20 19 17 17 17 18 17 15 15 16 16 17 16 13 12 11 9 8 7 7 7 9 8 11 10 10 9 8 10 11 9 7 9 8 11 10 10 8 11 8 9 7 12 15 9 11 10 9 12 14 15 14 16 14 15 17 18 20 19 19 19 16
20 22 19 21 18 18 20 17 23 16 21 21 20 25 23 23 15 18 19 20 20 20 19 19 20 20 20 20 20 19 20 20 19 20 21 22 18 19 19 18 18 17 16 15 15 14 16 15 14 12 10 10 9 7 7 9 10 8 10 10 12 12 10 11 9 8 10 7 9 10 10 10 9 9 8 7 7 9 10 13 9 7 9 8 8 15 15 14 14 15 17 17 18 21 17 17 20
21 17 16 18 17 20 27 14 18 15 18 22 23 25 25 26 21 20 20 20 20 20 19 18 18 20 20 20 20 20 19 19 19 19 19 23 21 20 19 19 18 17 16 16 15 14 13 14 13 12 10 9 8 8 7 7 9 11 12 12 13 13 10 12 8 10 8 8 10 9 10 9 11 10 10 8 7 8 9 8 11 13 11 14 15 13 18 17 16 15 13 17 18 22 22 19 18
15 12 13 17 17 20 12 15 11 9 17 21 21 23 25 23 24 22 22 21 22 23 22 21 21 21 21 21 21 21 20 21 19 20 20 21 23 23 21 19 19 18 17 17 17 16 14 15 13 13 12 9 7 6 9 10 11 11 11 13 14 13 13 9 9 9 10 11 10 12 10 10 10 11 11 10 10 9 10 9 9 10 14 11 16 13 13 21 23 20 14 14 26 23 23 20 21
15 17 18 21 22 22 19 16 13 10 15 22 22 26 27 26 23 24 22 25 25 24 25 25 24 23 23 23 23 22 22 22 22 19 20 20 25 22 21 20 18 20 19 18 18 17 15 14 14 14 13 11 9 7 9 8 10 12 12 14 13 14 15 14 12 10 9 8 9 9 9 10 10 10 9 9 9 10 11 11 11 10 12 16 16 16 16 19 19 18 18 22 21 27 26 22 20
14 20 20 21 22 19 16 10 12 13 15 23 24 27 25 24 25 25 24 23 24 26 26 25 26 26 26 26 25 24 22 22 21 21 17 21 21 24 24 20 20 19 18 19 17 17 16 16 14 14 13 13 12 10 9 10 8 9 10 11 11 12 11 11 10 10 8 9 7 7 8 9 11 13 11 10 12 12 11 12 13 12 14 13 16 19 18 18 17 22 20 20 20 24 27 23 22
16 19 22 22 16 14 18 21 9 12 19 19 19 24 23 20 22 25 27 29 28 23 24 25 25 26 25 23 20 19 20 23 23 18 21 22 23 24 24 22 20 19 18 18 17 18 18 16 15 14 14 13 14 12 10 10 8 8 8 7 8 9 9 8 7 8 7 8 9 8 12 12 13 13 15 14 13 13 11 12 14 15 15 14 14 15 18 21 18 22 22 23 23 22 27 27 24
18 18 20 22 11 16 21 17 11 7 15 17 20 24 29 27 28 30 27 28 27 27 27 27 27 25 23 21 22 21 19 18 19 20 21 21 23 24 25 23 21 20 19 18 17 19 17 17 16 16 16 14 14 14 12 11 12 12 12 12 10 10 9 9 9 10 10 10 8 8 9 10 12 13 13 13 15 13 12 12 13 15 16 16 16 16 16 20 19 18 22 21 22 21 20 21 23
20 20 16 15 14 12 11 11 15 18 19 22 17 23 28 25 29 28 24 30 30 28 28 28 26 27 26 26 24 22 18 16 17 19 22 22 23 23 24 23 22 21 21 19 17 18 17 17 16 17 16 15 15 14 13 11 8 7 6 7 8 8 8 9 11 10 10 10 12 8 8 9 11 11 12 14 14 14 15 14 13 15 16 18 17 17 17 18 18 19 18 20 23 23 20 18 28
12 21 18 11 14 12 12 13 17 21 21 22 17 20 19 15 19 21 19 18 20 20 24 26 27 26 26 25 23 22 21 21 18 17 20 22 22 22 23 23 23 22 20 19 18 17 18 17 16 18 16 16 15 14 13 11 10 10 8 8 8 8 8 10 8 7 7 8 8 9 10 7 9 10 11 12 12 13 13 14 15 15 17 17 17 18 19 18 18 19 20 22 22 21 24 25 22
22 19 14 10 14 15 15 16 19 24 13 18 19 21 20 21 20 19 21 19 19 20 20 22 24 23 23 22 22 20 23 21 20 20 19 20 21 22 23 23 23 22 19 19 18 18 18 18 17 19 17 16 15 14 13 10 10 9 9 8 8 8 8 9 7 7 7 6 8 9 10 10 9 10 10 11 13 14 14 14 14 14 17 18 17 18 18 19 20 19 20 21 24 24 26 28 24
16 11 12 14 15 15 17 19 20 22 16 20 22 20 23 24 20 15 16 19 20 20 21 21 22 22 21 21 22 22 21 21 21 21 20 21 21 22 22 23 22 22 21 19 20 19 18 18 19 18 17 16 16 15 14 12 9 9 10 9 8 10 9 8 9 8 7 7 7 8 9 10 10 10 10 10 11 13 14 15 14 15 16 18 19 18 18 19 18 19 20 18 21 22 24 24 27
11 9 11 15 14 15 17 21 21 21 19 21 21 20 26 21 17 21 18 20 20 21 21 21 21 21 21 22 20 20 21 20 21 22 21 20 20 22 21 22 22 21 18 19 19 18 18 18 19 19 17 17 17 16 15 13 11 11 10 8 9 9 8 9 6 8 7 6 6 7 8 9 10 9 10 10 11 13 13 14 16 16 16 18 19 20 18 18 19 20 21 21 22 23 21 21 23
11 12 17 19 20 21 20 22 23 24 27 27 23 20 24 25 16 15 22 27 16 15 18 20 20 20 20 18 20 21 21 23 23 22 22 21 20 21 22 23 22 18 17 20 19 19 18 19 19 20 19 18 18 17 16 15 13 11 11 11 10 9 9 8 9 9 8 7 7 7 8 9 9 10 9 9 9 12 13 15 15 16 17 17 19 19 20 21 20 20 21 21 21 26 27 24 21
16 20 22 20 22 20 21 22 20 24 27 25 25 23 20 23 21 21 16 16 15 13 15 17 19 21 20 18 21 21 21 22 23 23 23 22 22 22 21 20 20 21 20 20 19 19 19 20 20 21 20 19 18 18 17 16 15 12 10 11 11 10 10 11 9 9 8 8 8 8 8 9 9 10 9 10 9 9 11 13 15 16 17 16 18 20 19 20 20 20 20 21 22 23 25 26 27
22 21 23 24 24 23 27 25 27 29 27 21 17 18 22 30 26 24 13 15 15 15 18 17 19 20 20 21 21 21 21 21 23 24 23 24 23 22 22 22 21 21 21 21 21 20 20 20 20 21 21 20 19 18 17 17 15 14 13 12 11 12 11 10 9 9 9 10 10 8 8 10 9 10 9 11 10 10 12 13 14 16 17 17 18 19 21 22 22 21 21 21 22 21 24 24 28
23 27 23 25 27 26 25 27 27 30 29 26 20 16 28 18 20 21 23 17 17 17 18 15 16 18 18 20 21 23 22 23 24 24 25 25 25 24 24 24 24 23 22 22 21 20 19 19 20 21 21 21 19 19 19 18 17 16 14 13 13 13 12 11 10 10 10 9 9 9 10 10 11 10 11 12 11 12 13 14 15 17 18 19 19 20 21 21 22 25 23 23 22 22 22 24 27
26 23 29 25 27 32 26 27 25 25 22 14 11 14 17 11 11 14 21 20 17 19 21 19 18 18 17 19 20 20 23 23 25 25 24 24 25 23 23 23 22 23 21 20 20 20 19 19 21 22 22 23 21 20 19 19 18 17 15 14 14 13 12 12 11 10 10 10 9 10 11 11 12 12 12 12 11 12 13 14 15 17 19 19 20 20 21 22 22 24 24 24 25 23 23 23 24
24 23 26 29 27 20 33 27 28 28 25 18 19 25 10 21 13 12 12 16 18 19 22 22 22 22 20 20 21 22 20 21 23 22 23 21 23 23 22 21 20 20 21 19 19 19 19 19 19 21 21 22 22 20 19 20 18 17 16 15 14 12 12 11 11 10 10 9 10 11 11 12 13 13 12 12 13 14 14 15 16 18 19 20 21 21 21 22 21 23 25 25 25 24 24 23 23
13 22 32 29 21 25 28 25 28 21 27 39 28 25 30 24 31 27 23 23 23 22 23 24 24 24 21 21 22 22 23 25 24 24 23 21 21 22 23 21 20 19 19 20 20 20 20 19 19 20 20 20 21 21 19 18 18 17 17 15 14 13 12 11 10 9 10 10 11 12 12 12 11 13 14 13 14 15 15 16 17 19 20 20 20 22 22 22 22 23 24 24 27 26 27 26 25
30 30 23 21 22 21 27 31 22 27 32 31 21 24 24 28 33 23 29 29 26 26 25 26 24 23 24 23 22 22 24 24 23 23 22 22 22 23 23 22 21 20 20 18 19 17 18 19 19 20 20 22 23 21 20 19 18 18 17 16 15 14 13 12 11 11 11 12 12 12 12 13 13 12 13 14 14 15 17 17 19 21 22 22 22 22 23 24 23 24 24 26 26 25 27 27 27
32 31 20 27 25 26 24 27 29 31 33 34 26 28 32 32 33 25 24 22 24 25 24 25 26 26 24 23 22 21 21 22 23 23 24 23 23 23 23 22 23 22 21 16 20 19 18 17 19 20 21 22 23 22 20 20 19 17 17 16 16 15 13 12 12 12 12 12 13 13 13 13 14 15 16 16 17 19 19 19 20 21 22 23 23 23 22 23 23 24 24 25 25 26 27 26 29
24 21 30 25 30 33 33 30 26 31 32 28 28 33 38 30 30 26 29 26 23 23 24 25 25 25 24 22 21 21 21 21 23 24 24 24 24 23 24 23 23 22 17 19 21 21 20 18 18 18 18 20 21 21 21 20 20 18 16 16 15 16 14 14 13 13 14 14 13 14 13 13 15 18 18 19 19 20 20 21 21 23 23 24 24 24 24 23 23 23 24 25 25 25 27 28 28
27 29 30 28 34 24 30 29 34 35 35 35 36 38 34 29 22 22 24 27 28 21 23 24 25 24 24 22 19 19 21 22 22 23 24 24 23 23 23 23 26 22 22 20 20 19 20 19 19 20 21 23 23 22 22 20 20 18 17 16 15 14 13 13 13 14 14 14 14 14 15 17 19 20 20 21 22 22 22 22 23 24 24 24 24 26 24 22 23 24 25 25 25 28 29 30 29
23 26 27 23 25 26 30 33 29 38 41 38 36 43 34 26 20 21 21 21 23 25 24 23 22 23 22 21 18 19 20 20 21 21 20 21 22 24 24 26 24 21 24 20 21 20 20 19 20 20 21 23 23 24 22 21 19 18 17 16 15 14 14 14 13 14 15 15 16 16 17 19 20 21 21 23 24 24 23 23 24 25 25 25 25 26 26 25 25 24 25 24 24 26 28 30 29
Wind_Speed
11 8 6 7 6 7 7 7 7 7 8 11 11 8 3 6 3 3 5 4 7 5 3 3 7 6 5 10 12 13 14 14 10 4 4 5 3 6 7 7 6 9 7 7 7 6 8 8 7 7 6 6 6 7 7 10 10 10 10 9 9 12 6 6 13 12 12 13 12 11 12 12 10 10 9 9 9 8 10 11 12 13 13 14 14 13 12 12 12 13 13 12 12 12 14 16 17
8 5 5 6 7 6 6 7 7 7 9 10 11 8 7 5 5 6 6 1 8 8 5 6 6 6 6 8 8 11 16 14 14 12 9 8 9 8 12 5 7 10 5 6 6 7 8 10 8 8 6 7 6 7 9 11 10 10 10 11 11 13 10 7 6 13 11 11 12 12 12 12 11 11 10 9 8 8 9 10 11 12 14 14 14 14 12 12 11 11 13 12 12 13 13 15 17
7 5 6 7 7 8 7 6 9 10 10 9 8 9 10 5 5 7 8 8 9 9 8 9 8 6 7 6 8 9 10 11 12 11 8 6 4 9 8 7 8 9 9 6 6 6 8 8 8 8 6 6 6 7 9 11 11 10 10 11 12 12 11 11 5 10 12 11 11 12 12 12 12 12 10 9 8 8 8 9 10 11 13 14 14 14 12 11 11 10 11 11 11 13 14 15 17
9 7 7 7 7 6 7 7 10 11 9 8 10 10 6 2 5 11 10 10 9 7 7 8 5 4 7 9 9 12 11 10 12 9 7 8 9 8 6 7 8 7 8 6 5 5 7 9 8 7 6 6 5 7 8 11 12 11 9 10 13 13 11 13 12 10 10 10 10 12 11 10 12 13 11 9 8 8 10 10 10 10 11 12 13 12 12 10 10 10 10 10 11 13 14 15 16
8 7 8 8 8 7 7 8 9 10 11 5 7 12 6 7 12 9 8 6 6 5 2 8 6 4 13 12 5 4 10 12 12 10 8 8 8 9 6 7 8 8 9 9 8 9 8 12 9 8 9 7 6 5 6 9 11 10 10 10 12 13 11 12 12 12 12 11 9 10 11 10 11 11 10 9 8 10 11 10 9 9 9 8 8 9 8 7 9 9 9 10 12 14 14 15 15
8 7 7 8 7 7 7 8 10 12 11 7 8 5 5 7 10 10 9 7 7 2 3 4 3 8 7 9 8 8 7 4 7 9 7 8 9 11 8 8 8 9 11 9 11 8 9 14 13 14 16 14 8 5 5 8 10 10 10 10 11 12 12 11 9 11 11 12 11 11 11 12 10 10 10 10 8 10 11 11 10 9 8 8 8 9 8 7 8 9 9 11 13 14 14 14 13
7 7 7 8 9 6 9 10 10 9 13 8 4 5 4 9 10 10 10 9 5 6 2 3 5 10 8 7 12 9 9 8 7 9 9 9 12 11 7 10 10 11 14 12 12 13 10 12 14 17 16 14 13 12 6 5 9 10 11 11 12 12 10 10 10 9 12 12 12 12 11 12 10 9 9 10 9 9 9 9 9 9 9 9 9 8 9 9 10 10 10 12 13 14 14 12 12
8 9 7 8 7 7 10 11 12 9 3 9 5 4 5 8 9 9 10 9 9 8 4 5 4 3 12 4 7 8 11 11 10 8 9 10 12 10 8 10 10 13 15 16 16 14 15 12 13 10 10 10 10 9 8 9 4 10 11 10 11 10 11 11 12 10 11 11 12 12 11 11 10 9 8 9 9 9 8 8 9 9 9 9 10 12 12 11 11 12 13 13 13 14 13 12 12
8 9 4 8 10 7 9 11 11 11 9 2 7 6 5 8 7 9 10 5 9 4 7 5 6 7 9 11 9 9 9 10 10 9 10 11 11 11 9 12 11 13 17 14 14 12 11 10 11 10 9 10 9 5 7 7 8 4 9 11 11 10 10 10 11 11 11 11 11 11 11 10 9 8 7 7 8 8 9 9 9 9 10 10 13 13 13 12 12 12 13 13 13 13 13 12 12
7 8 7 7 7 11 9 10 12 8 6 5 3 9 8 7 8 8 8 6 8 7 7 4 1 5 11 12 10 8 9 10 10 11 10 12 12 11 11 12 12 15 17 14 11 7 5 9 12 9 7 8 7 5 3 3 4 2 7 10 10 10 10 11 10 10 11 11 10 10 10 9 9 8 7 8 8 8 8 8 8 9 9 12 14 14 13 12 12 13 12 13 13 12 13 12 12
8 8 7 8 10 10 10 10 12 4 4 6 2 7 7 7 7 9 9 8 7 7 7 4 6 8 8 10 10 8 10 9 9 11 11 11 12 12 11 11 13 14 16 15 14 9 8 8 12 10 7 6 5 5 3 1 1 3 7 9 10 10 10 10 10 10 11 11 10 10 10 9 9 9 7 9 8 8 8 8 8 9 9 11 13 14 13 12 12 13 12 11 11 11 11 11 11
8 8 7 9 9 9 8 10 10 6 8 6 8 7 6 9 9 6 4 8 7 8 7 7 6 8 10 8 7 8 9 9 10 10 11 11 11 12 11 10 12 15 17 14 13 10 10 12 9 9 5 3 5 3 3 4 3 3 6 8 10 10 10 9 9 9 10 10 9 9 9 9 9 8 9 8 8 8 8 8 8 9 9 11 12 14 12 11 12 12 11 11 11 11 9 10 10
10 7 9 9 9 9 9 10 6 5 7 8 8 9 6 8 9 7 7 6 8 7 7 3 10 6 8 7 8 9 10 9 9 10 11 11 10 10 11 11 12 13 16 17 15 11 11 10 10 8 5 2 4 2 1 5 3 2 5 7 8 10 10 9 9 8 8 8 9 9 10 10 9 9 9 9 9 8 9 8 8 9 9 10 13 14 12 12 12 13 13 13 12 10 10 10 10
9 7 7 9 9 11 10 6 2 6 6 8 7 9 7 6 9 7 7 8 9 6 8 5 3 3 12 8 9 8 9 9 10 10 9 10 10 10 12 11 11 11 12 14 15 13 9 9 9 7 5 3 2 1 3 7 3 2 4 6 9 8 9 9 9 8 8 9 10 9 10 10 10 9 9 10 9 8 9 9 9 9 9 9 11 14 13 12 12 13 13 13 11 10 10 10 10
11 6 7 8 10 8 7 7 9 5 8 13 11 9 9 4 5 6 9 9 7 9 7 5 6 7 7 8 9 10 11 11 10 10 9 9 10 10 11 11 11 10 11 11 12 15 12 8 8 7 5 2 2 3 4 4 3 2 3 6 8 8 9 9 9 9 9 9 10 10 11 12 11 10 10 9 9 10 9 10 10 9 9 10 11 15 14 12 12 12 12 11 11 11 11 11 10
9 6 6 8 10 8 7 11 7 4 4 11 13 10 9 6 3 6 5 10 11 7 5 7 2 7 7 6 13 16 14 12 10 9 8 9 8 9 10 11 11 11 9 9 9 10 13 12 7 5 5 7 6 5 5 5 5 1 2 5 7 6 7 8 9 9 10 10 10 10 11 12 12 11 13 12 10 9 10 11 10 10 10 10 11 14 14 11 11 12 11 10 9 10 10 9 9
8 7 8 8 10 8 6 9 6 7 9 9 11 12 11 9 7 3 3 3 8 9 2 5 6 2 9 11 16 16 14 11 10 9 8 7 6 6 6 8 9 10 8 9 7 6 8 10 12 8 7 6 6 6 5 5 6 2 2 4 3 5 6 8 8 8 9 9 10 10 10 11 11 10 12 11 12 11 9 10 11 11 11 11 11 13 13 11 10 9 9 8 7 7 7 8 7
7 8 8 9 9 9 5 6 7 8 8 8 9 10 10 10 9 6 8 7 6 7 6 7 6 7 7 11 12 13 13 11 9 9 7 6 5 6 6 5 6 7 8 8 7 7 6 6 8 8 5 6 6 6 6 5 5 6 7 5 7 6 6 8 9 10 11 10 11 10 10 10 8 8 10 10 9 11 9 10 10 11 11 12 10 11 12 11 9 7 8 8 7 7 10 8 7
8 8 8 9 8 2 6 3 7 5 4 6 6 9 9 9 10 9 10 9 8 8 8 8 9 8 8 9 13 12 11 10 9 7 7 5 4 6 5 7 5 5 6 7 7 6 5 3 4 6 8 6 5 5 4 5 6 6 6 7 4 5 7 10 9 10 10 10 11 10 9 8 8 6 9 10 10 11 11 9 10 12 11 11 11 11 11 10 8 6 6 6 7 8 8 6 7
10 9 9 9 8 7 0 1 4 5 6 6 7 7 9 11 9 11 11 10 9 9 8 10 10 10 10 11 12 12 11 10 8 7 7 5 7 6 4 5 7 6 5 6 6 5 5 4 4 3 4 7 4 4 5 5 5 3 3 5 5 5 6 8 8 9 9 9 8 8 7 4 5 2 6 12 13 11 9 10 10 12 12 12 13 11 13 12 11 8 7 6 6 7 6 6 7
8 10 9 5 3 3 5 7 1 1 3 6 5 8 6 9 7 8 8 8 8 8 10 10 11 11 11 12 12 11 11 10 9 8 7 7 6 5 6 5 5 4 4 7 7 5 5 3 2 3 3 2 8 4 5 6 1 3 6 3 1 5 6 5 5 7 8 6 8 8 4 2 5 4 2 7 6 9 8 10 10 9 9 10 13 9 9 10 10 9 7 8 8 7 7 3 4
4 12 7 6 4 6 8 2 2 2 3 4 5 7 8 8 2 9 7 9 3 5 12 7 4 11 11 12 12 11 11 11 10 9 7 7 6 6 6 6 6 5 5 6 6 5 3 6 4 2 1 3 1 5 3 6 4 1 6 3 4 5 5 6 6 5 5 4 4 7 8 6 3 8 7 8 6 6 4 8 10 10 10 10 11 9 9 9 9 10 10 9 8 8 4 4 4
8 8 7 5 6 6 5 5 3 3 7 2 6 8 5 7 8 7 6 11 8 7 9 6 2 9 11 10 11 11 11 11 9 9 9 8 7 8 6 5 6 7 6 7 6 5 4 4 4 3 3 2 2 1 8 7 3 5 5 5 4 5 4 6 7 6 5 4 3 4 5 7 4 4 4 5 6 6 7 9 10 10 10 10 10 8 9 9 8 9 8 7 7 5 6 5 5
11 7 9 6 3 1 3 6 4 3 5 7 0 7 4 6 9 8 8 8 5 6 2 5 5 8 11 11 10 10 10 10 9 8 8 8 8 8 7 7 6 7 7 7 6 5 5 6 6 4 3 3 1 3 1 6 6 5 2 3 6 5 7 5 6 5 5 4 4 4 8 3 5 3 5 5 6 9 8 11 9 9 9 9 10 9 8 9 7 6 6 7 6 6 5 5 5
10 9 4 3 6 4 3 4 4 3 2 3 1 5 9 6 4 4 9 5 3 3 1 4 5 8 9 9 10 10 10 10 9 8 7 8 9 8 8 7 8 8 8 7 6 6 6 5 5 5 3 1 2 3 2 3 4 5 5 5 3 3 5 4 5 6 5 5 8 8 8 2 5 7 7 5 7 6 7 8 6 9 9 8 9 9 7 8 7 8 7 6 5 5 5 5 5
10 10 4 6 7 5 4 5 4 5 4 4 6 9 5 4 3 8 8 6 4 3 5 5 7 7 9 9 9 10 10 10 9 9 8 9 9 9 8 8 8 8 8 7 6 5 5 6 6 6 4 2 2 1 1 3 2 4 6 5 6 3 2 2 7 5 4 4 4 6 5 5 5 3 4 2 4 3 6 8 9 8 8 8 8 8 6 6 7 7 6 6 5 5 5 4 4
10 4 3 7 6 6 6 7 7 5 5 3 9 9 7 7 5 8 13 7 7 6 6 8 8 8 8 9 9 9 10 10 11 9 9 9 9 8 8 7 8 9 8 8 6 6 5 6 6 7 7 5 3 3 3 2 1 2 2 3 4 4 4 0 3 4 5 6 5 7 6 4 4 3 3 1 1 6 4 6 7 7 6 9 6 6 6 6 6 5 6 7 6 5 5 5 5
6 3 5 4 5 7 7 7 4 5 8 7 7 9 6 6 8 11 5 10 8 8 8 9 9 9 8 10 10 9 9 9 9 9 10 10 8 8 8 7 8 8 8 8 7 6 6 7 7 7 7 5 5 4 2 3 2 2 3 1 3 3 3 2 4 3 2 4 5 5 5 5 2 1 4 4 3 3 5 6 5 8 11 9 8 6 7 6 6 7 9 6 6 5 5 4 5
3 6 7 9 8 9 10 10 9 7 5 6 3 10 10 11 12 11 7 7 8 8 9 10 10 9 9 10 9 9 9 10 9 9 9 8 8 8 8 9 8 8 8 8 9 8 7 7 6 6 6 5 5 5 4 3 2 3 2 3 4 1 1 2 1 1 1 1 3 4 5 3 1 1 2 6 5 4 5 4 4 7 8 7 6 7 7 6 6 6 5 5 5 5 5 5 4
7 9 9 9 9 10 13 10 7 6 3 4 2 9 9 15 14 10 10 8 8 9 9 10 9 9 9 9 9 9 9 10 9 9 9 8 9 9 10 9 8 8 9 9 9 8 6 5 5 5 6 7 6 6 4 5 4 2 2 3 3 2 2 1 2 1 2 2 3 3 3 3 3 1 3 3 5 4 5 4 2 5 8 8 5 6 5 6 5 6 6 5 5 6 6 5 5
9 9 9 9 8 10 15 12 10 9 9 6 5 9 10 8 15 12 9 9 10 10 10 10 10 9 9 9 8 9 10 9 9 9 10 8 9 9 10 10 7 8 9 9 10 9 8 7 5 5 5 6 6 6 6 5 5 4 5 4 4 4 1 1 2 1 1 1 2 1 1 2 2 1 3 4 3 4 6 3 4 7 9 5 5 6 5 5 6 6 6 6 7 7 6 7 7
9 7 9 9 10 3 14 11 11 9 9 8 8 9 11 3 11 12 9 9 10 10 10 10 9 8 8 9 8 9 10 10 10 10 9 9 9 9 10 10 7 7 10 10 10 10 9 7 6 6 5 5 5 4 4 4 4 4 4 4 4 4 3 3 2 2 2 1 0 2 0 1 1 2 2 2 4 4 4 3 5 7 6 1 2 1 5 6 5 6 6 6 7 7 7 7 7
9 8 7 9 9 5 7 13 10 11 5 8 12 8 7 9 12 11 9 10 10 9 10 10 9 9 8 8 8 8 8 10 10 11 12 9 9 9 9 11 9 8 10 10 10 10 9 9 6 6 6 4 3 3 3 3 4 3 4 4 4 4 4 3 2 1 1 1 2 2 4 3 3 3 3 1 3 3 4 6 7 4 2 2 3 2 4 6 6 6 6 7 7 7 8 10 8
8 8 8 9 7 8 6 10 9 11 9 9 12 12 12 9 10 9 10 10 11 11 10 10 9 8 9 9 9 10 9 9 11 11 12 11 10 10 10 10 10 10 9 9 10 9 10 8 7 6 5 4 3 2 2 2 3 2 4 3 4 3 3 4 4 2 2 2 2 3 4 4 2 3 3 2 2 0 4 2 3 2 2 3 3 3 5 4 4 5 6 7 8 8 8 9 7
6 9 7 9 7 8 9 5 10 6 11 11 10 13 12 12 6 9 10 11 11 11 10 10 11 10 10 10 9 10 10 10 10 10 13 13 11 12 10 10 10 10 8 9 9 8 8 7 7 6 4 4 4 2 2 4 5 3 4 4 5 5 3 4 3 2 3 2 3 3 3 3 3 3 2 1 2 2 3 3 3 2 2 3 3 6 7 5 6 5 6 4 5 9 8 8 9
10 8 5 8 7 8 11 3 8 6 8 9 12 11 12 14 11 10 10 11 11 11 10 9 9 10 11 10 10 10 9 10 10 11 12 13 12 12 10 10 10 9 9 9 9 8 7 8 6 6 5 4 3 3 2 1 3 4 4 5 5 5 4 4 2 3 2 2 3 3 3 2 4 4 3 2 2 2 3 3 2 3 4 3 4 5 6 7 8 7 6 3 6 9 10 7 8
8 5 5 6 7 9 1 6 4 1 6 9 10 13 14 12 13 11 12 12 12 12 13 11 11 10 10 10 10 10 10 10 9 11 12 14 14 12 12 10 10 11 10 10 10 9 8 7 7 6 5 3 2 1 3 3 3 3 3 5 4 5 5 4 2 2 3 4 3 4 3 2 3 3 3 2 4 3 3 3 3 3 4 5 5 5 6 8 9 8 5 4 5 8 10 10 8
8 8 9 9 11 10 9 6 6 2 6 10 11 13 15 15 13 14 12 14 15 14 14 14 13 13 11 13 13 12 11 11 12 11 12 13 13 14 12 10 11 12 11 11 11 9 9 8 8 7 6 5 3 2 3 2 3 3 3 4 4 4 5 5 4 3 2 1 2 2 2 2 3 3 2 3 2 2 4 4 4 4 4 5 6 7 6 7 9 7 4 4 7 8 10 11 8
7 8 9 9 8 9 8 2 5 5 5 9 13 15 13 13 11 12 13 11 12 15 14 14 14 15 13 13 14 14 13 12 12 13 10 11 13 15 13 11 11 11 11 11 10 10 9 8 7 7 6 6 5 4 3 4 3 3 3 3 4 4 4 4 3 2 2 2 1 0 2 4 4 5 4 3 4 4 4 5 4 4 5 5 5 7 7 8 8 10 10 8 8 7 7 10 7
7 7 9 8 4 5 5 10 1 4 5 8 10 12 10 11 12 15 16 16 15 13 15 15 14 15 15 14 11 9 10 11 14 8 9 11 13 14 14 12 11 11 10 10 10 11 9 8 8 7 7 6 7 5 4 4 3 3 2 2 2 3 2 2 2 2 2 2 2 2 4 5 6 6 6 6 5 5 4 5 5 6 6 6 6 6 7 8 10 9 9 10 10 7 8 12 10
9 9 9 9 4 7 9 4 2 1 7 9 10 10 11 12 14 13 14 16 15 15 16 16 15 14 12 11 11 11 11 10 10 10 11 12 13 14 15 13 12 11 11 10 10 10 8 9 9 8 8 7 7 7 6 5 5 5 4 3 4 4 3 3 3 3 2 2 2 2 2 3 4 6 6 5 6 6 5 5 5 6 7 7 7 7 8 8 9 10 11 10 10 9 10 7 8
8 12 9 8 7 6 5 5 7 6 6 10 9 7 10 14 16 14 11 14 16 15 16 17 15 14 14 15 14 13 10 8 9 11 13 13 13 14 15 14 13 12 11 10 10 10 9 9 9 9 8 7 7 8 7 5 3 2 1 1 1 1 2 2 3 3 2 2 3 2 2 2 4 4 4 6 6 6 6 6 6 6 7 8 8 8 7 8 9 10 9 8 10 12 10 7 6
4 7 10 5 7 6 5 6 7 8 8 7 8 7 5 4 8 11 9 8 10 10 13 15 14 14 14 13 12 11 11 11 10 9 11 13 13 13 14 14 14 13 12 10 10 10 10 9 9 10 8 7 7 8 7 5 4 4 2 2 2 1 1 3 2 1 1 1 1 1 2 1 3 3 4 4 5 6 6 6 7 7 7 8 7 8 9 9 8 9 8 7 9 10 11 9 10
8 10 7 4 6 8 8 8 9 9 5 9 10 7 6 7 5 9 12 10 10 11 11 12 13 14 13 12 12 12 12 12 11 11 11 12 13 13 14 14 13 12 11 11 10 9 11 11 10 11 8 8 7 7 6 5 4 4 4 3 2 3 2 3 2 2 1 1 1 1 1 2 3 2 3 4 5 6 6 6 6 7 7 9 8 8 8 9 9 8 10 10 10 9 10 11 11
2 2 0 6 8 8 9 8 8 9 7 6 8 11 7 8 8 1 7 9 11 11 11 11 11 12 12 12 11 12 13 12 12 11 12 12 13 13 13 14 13 13 12 11 10 10 10 10 10 11 9 8 8 9 7 6 3 4 4 3 3 3 3 2 3 2 1 1 1 0 1 2 2 3 3 3 4 5 6 6 7 7 8 8 9 8 8 10 10 10 9 9 9 9 10 12 14
3 3 2 7 5 7 9 9 9 9 7 9 10 9 9 8 7 8 9 9 10 10 11 12 12 12 11 11 11 11 11 11 12 13 12 12 12 13 13 13 14 12 10 11 11 10 10 9 11 11 10 9 9 9 8 7 6 5 4 3 3 3 2 3 1 2 2 1 1 1 1 1 1 1 2 3 3 4 5 6 7 8 8 8 8 10 10 9 10 10 10 10 9 11 9 9 11
5 5 8 8 9 9 8 9 9 9 11 12 14 11 11 8 6 6 8 11 7 6 8 9 11 11 11 10 11 11 11 12 11 12 13 12 12 13 13 14 14 11 9 11 10 10 10 10 11 12 11 9 10 10 9 9 7 5 5 5 5 4 3 3 3 3 2 1 1 1 2 1 1 2 1 2 3 3 4 5 6 7 8 9 9 10 9 9 9 10 10 11 11 12 11 11 10
7 7 8 8 9 8 9 8 8 8 9 12 14 13 10 9 8 8 5 7 6 5 7 8 10 11 10 10 10 11 12 11 12 12 13 13 13 13 13 13 12 11 11 11 10 10 11 11 11 12 12 11 10 9 9 9 7 6 5 5 5 4 5 4 3 3 3 3 2 2 2 2 2 2 2 2 3 2 3 4 5 7 8 8 8 9 9 9 9 9 10 9 10 11 13 11 11
9 9 9 10 8 6 9 9 10 11 9 10 9 6 8 13 12 12 2 7 6 7 8 7 10 10 11 10 11 10 10 11 12 12 12 12 12 12 12 12 12 12 11 13 12 11 11 11 12 12 12 12 10 10 10 9 8 7 6 6 5 5 5 4 3 3 3 3 3 3 2 3 2 2 2 3 2 3 3 4 5 5 6 7 8 9 9 11 11 9 9 11 11 12 11 12 11
10 11 9 10 9 9 10 11 8 11 14 15 8 7 11 8 8 9 11 8 9 8 9 8 8 10 10 10 11 12 11 12 12 12 13 14 14 13 13 13 14 13 13 12 12 11 10 10 12 12 12 12 11 11 11 10 9 8 8 7 6 5 5 5 4 4 4 3 2 3 3 3 3 3 3 4 3 4 4 5 5 6 7 8 9 10 10 11 11 10 11 12 12 11 11 13 13
11 11 12 10 10 9 10 9 9 9 6 5 1 4 4 5 1 4 10 11 8 10 10 10 9 9 9 10 10 11 13 13 13 13 13 14 14 14 13 13 13 13 13 12 10 11 10 10 11 12 12 13 12 11 10 11 9 9 8 7 6 5 5 5 4 3 3 4 3 3 3 3 4 4 4 4 4 4 5 6 6 7 7 9 9 10 10 10 11 11 11 12 12 11 12 12 12
10 10 10 12 10 7 13 10 12 11 9 6 7 6 3 7 5 3 4 6 9 10 12 13 13 12 11 10 11 11 10 10 12 13 13 12 14 14 13 12 11 12 13 11 11 10 10 10 11 12 12 12 12 12 10 10 10 9 9 8 7 6 5 4 4 3 3 3 3 3 4 4 4 4 5 5 5 6 6 7 7 7 8 8 10 11 11 10 10 10 10 11 13 10 11 13 12
2 6 12 12 10 12 9 10 15 13 10 14 8 8 11 10 15 15 13 12 12 12 13 13 14 14 12 11 11 12 12 12 11 12 11 12 12 14 13 13 11 11 10 11 11 10 12 11 11 12 12 12 12 12 11 10 10 9 9 8 7 7 6 5 4 4 3 3 3 4 4 4 4 5 5 5 6 6 7 7 8 8 8 9 9 10 11 11 11 11 11 11 12 13 13 13 12
10 11 9 9 11 10 8 11 6 9 13 9 8 10 11 12 9 6 16 17 15 14 13 13 13 13 14 12 11 11 12 13 13 13 13 13 13 13 13 12 13 12 12 11 10 9 10 10 12 12 12 13 13 12 11 10 10 10 9 9 8 7 6 5 4 4 4 4 4 4 4 5 5 4 4 5 6 7 8 9 9 9 9 10 11 11 11 12 12 11 12 12 12 13 13 12 13
14 14 9 10 6 11 9 7 12 11 11 10 10 15 14 14 13 10 13 12 12 13 14 13 14 14 13 13 13 12 12 11 12 13 12 12 12 12 13 13 14 13 13 9 9 8 9 10 11 11 13 13 14 11 11 10 10 8 8 8 8 7 6 5 5 5 4 5 5 5 5 5 5 5 6 8 9 9 9 8 9 10 10 11 11 12 11 11 12 11 11 12 12 12 13 13 13
14 11 13 11 11 12 12 8 10 9 13 11 12 16 13 12 11 12 15 16 11 12 12 13 15 14 13 11 11 11 10 10 11 12 12 12 12 13 14 14 13 14 10 10 12 11 12 10 11 10 11 11 13 13 12 11 11 9 8 8 8 7 7 6 6 5 5 6 6 6 6 6 6 7 7 8 9 9 10 10 10 10 11 12 12 12 11 11 11 11 11 11 12 13 14 14 14
9 11 12 9 10 10 11 9 11 12 10 11 12 13 11 11 10 11 12 14 17 13 13 13 14 14 14 13 10 9 9 10 11 11 12 13 13 13 14 14 14 13 12 11 11 11 11 10 11 11 12 14 14 13 12 11 10 9 9 9 8 7 7 6 6 6 6 6 6 6 6 7 8 8 8 9 10 11 11 11 11 11 12 12 13 13 12 11 11 12 12 13 14 14 15 14 14
9 9 11 10 9 10 12 13 11 13 12 11 11 14 12 11 7 9 11 10 11 12 14 12 12 13 12 11 11 10 10 10 11 11 11 11 12 14 13 12 12 11 13 12 11 11 11 11 11 11 11 12 13 13 12 11 10 9 10 9 8 7 7 6 7 7 7 7 7 7 7 8 8 9 11 12 12 11 11 12 12 13 13 13 13 13 13 12 12 12 13 11 12 14 14 15 15
Wind_Direction
269 246 257 247 248 257 253 213 244 187 236 245 256 222 270 155 79 235 130 142 175 67 101 130 52 54 355 71 85 65 45 37 39 355 69 82 146 87 66 45 74 94 93 113 118 145 132 85 72 63 91 81 82 75 78 93 104 113 116 100 94 103 118 145 139 139 137 134 132 129 123 121 120 120 122 128 126 128 129 128 128 131 127 125 122 123 123 124 123 123 124 123 124 123 123 122 117
253 251 248 240 237 240 215 219 257 246 207 248 245 265 130 134 184 218 152 246 69 100 93 88 95 84 40 98 109 109 57 59 57 82 92 122 121 70 54 63 56 99 109 92 111 139 137 101 66 80 87 94 89 88 91 100 106 111 117 113 107 111 120 126 160 136 136 135 134 132 125 121 121 123 122 125 132 131 133 130 132 133 129 124 123 122 124 126 126 125 127 128 128 126 126 123 117
284 245 209 218 233 236 292 205 244 244 234 229 236 219 91 167 215 172 126 91 107 110 100 84 74 42 122 141 80 27 83 55 78 79 95 185 147 55 47 63 88 108 123 115 114 129 128 94 75 92 90 112 102 96 104 115 116 120 126 122 112 115 134 139 176 136 138 138 136 131 125 125 126 124 125 121 115 122 124 127 127 136 132 126 127 126 128 128 128 127 128 131 129 127 126 124 119
280 269 246 197 215 210 239 219 244 260 249 254 267 134 162 191 185 85 79 98 107 132 136 138 119 29 292 105 79 100 83 69 42 74 79 51 44 70 65 76 88 102 107 117 100 110 103 95 85 91 80 75 98 101 113 120 126 128 129 121 124 131 130 141 153 151 139 140 139 128 125 123 123 128 130 128 130 126 127 132 140 149 133 130 131 132 132 134 132 132 130 132 131 126 127 123 120
256 232 245 238 265 213 233 234 237 237 252 243 270 99 162 193 103 117 107 110 120 137 181 95 127 63 47 51 352 65 86 82 72 74 80 63 41 78 74 73 92 99 90 99 114 100 78 66 86 71 46 43 85 84 102 109 123 134 133 125 129 127 136 145 152 153 140 136 127 121 118 116 116 120 125 128 122 124 128 127 124 122 125 126 123 122 125 130 129 130 132 128 127 124 127 124 120
234 236 210 251 232 350 274 239 227 239 252 301 318 141 137 126 130 123 133 144 128 117 87 178 33 148 88 50 35 67 351 96 84 51 72 63 71 66 77 85 94 89 96 92 89 74 77 60 68 53 35 28 29 63 80 107 115 131 134 134 133 137 145 155 149 144 135 132 124 120 118 116 116 117 119 118 118 121 130 132 133 134 132 124 119 121 122 121 116 113 120 128 127 127 129 125 121
208 214 191 222 253 242 246 239 237 235 232 239 3 65 177 114 126 144 137 132 145 121 270 143 112 122 130 116 89 53 45 81 84 70 63 83 74 72 85 90 79 87 77 87 83 83 78 70 62 48 38 29 27 20 25 94 115 120 134 139 142 146 153 145 139 143 138 135 129 122 121 116 114 109 117 120 117 116 119 123 126 126 124 124 120 116 110 107 111 115 121 123 125 128 126 126 122
258 251 167 223 230 199 226 248 251 226 141 214 127 327 153 121 135 163 148 168 141 182 152 90 201 23 85 175 84 85 79 71 90 93 87 83 76 67 72 83 88 77 78 82 81 75 70 67 76 71 54 50 41 28 10 13 92 124 132 140 138 145 145 140 137 140 136 135 128 126 125 121 119 116 118 118 122 117 116 121 120 120 118 114 113 113 110 110 115 122 122 125 126 129 133 129 123
221 238 242 245 243 210 237 232 240 239 76 314 163 14 25 143 167 158 169 151 132 100 161 162 105 239 113 102 90 108 94 90 88 85 83 80 83 75 59 58 66 84 98 88 84 81 73 56 65 63 50 50 45 39 14 17 5 111 130 136 141 141 133 134 136 138 136 135 132 131 129 127 123 114 115 113 121 123 121 120 123 117 116 115 118 116 119 119 120 124 127 129 133 136 136 132 125
222 236 192 234 242 233 224 230 238 214 219 124 137 179 206 147 183 180 134 152 153 138 90 46 203 92 118 103 125 138 109 112 110 102 93 84 81 81 68 75 68 76 81 92 98 103 112 82 73 98 84 55 39 46 43 350 8 246 133 132 135 135 134 134 137 138 137 136 136 136 136 133 126 122 126 124 125 122 120 120 120 117 116 120 122 121 121 125 127 128 131 133 135 139 139 133 125
229 195 276 247 232 245 227 228 224 184 156 149 138 154 194 183 171 198 166 138 129 132 128 178 161 120 121 98 78 88 113 122 116 93 91 86 80 77 78 69 81 67 84 98 104 108 112 103 103 92 65 60 57 7 346 259 269 273 143 137 133 131 134 133 136 140 141 141 144 141 139 138 133 133 130 129 128 118 117 120 120 116 113 119 124 123 126 129 130 132 133 132 133 136 137 132 123
237 211 201 239 237 238 229 242 210 188 164 166 178 177 157 188 183 188 139 138 154 135 140 235 125 145 111 122 121 133 126 115 106 106 98 95 86 79 77 77 74 86 92 95 97 96 103 126 125 112 98 215 109 95 330 299 272 302 141 135 129 133 133 138 139 143 144 146 144 142 138 138 139 139 137 128 123 122 120 126 120 116 116 117 123 126 129 130 132 130 129 128 131 131 128 124 121
251 236 218 240 246 232 254 244 223 147 152 194 159 186 162 172 197 178 161 164 169 146 136 9 102 227 134 121 118 127 133 118 118 122 111 104 102 94 78 67 67 76 93 96 99 96 94 101 125 136 152 223 66 94 215 293 245 310 158 136 132 133 138 140 143 146 146 145 139 138 142 140 141 144 136 130 133 129 130 124 121 121 118 118 125 130 131 128 126 132 132 134 133 129 127 120 119
238 241 247 239 245 270 252 257 243 191 210 180 143 138 181 175 195 185 182 159 180 171 92 110 165 295 96 120 143 144 128 133 125 110 104 98 97 90 85 83 74 71 68 92 102 106 96 97 107 119 147 219 167 195 209 262 256 247 164 149 137 137 139 141 143 142 146 145 145 144 144 145 149 149 142 139 139 134 131 127 126 124 123 120 125 135 132 130 130 131 137 136 133 130 128 129 126
242 243 264 261 254 232 256 249 230 166 239 142 125 158 168 193 187 181 179 182 102 77 99 42 37 254 130 178 157 144 134 131 118 109 108 106 97 102 101 91 81 67 66 69 89 110 111 108 111 123 137 183 184 197 197 208 243 238 168 153 137 143 142 146 145 154 152 155 157 153 149 153 150 148 143 143 139 138 140 134 130 131 130 131 125 136 137 133 134 134 136 138 140 140 143 142 144
254 272 254 254 247 251 207 237 260 237 134 146 145 149 181 127 213 199 100 333 114 117 195 125 323 10 82 345 119 118 124 123 120 123 123 119 123 125 118 104 91 81 74 63 65 87 122 127 119 132 155 162 171 194 203 201 189 239 135 148 136 144 156 152 158 161 165 164 167 158 156 158 156 158 156 156 144 145 151 156 140 135 141 139 130 136 141 141 138 135 135 140 149 157 152 150 149
238 261 247 237 254 233 228 209 220 239 108 143 149 148 190 170 183 48 88 90 151 136 186 88 104 256 72 83 98 111 119 121 131 136 137 138 157 136 131 128 116 104 92 86 75 61 78 111 126 134 149 146 154 157 198 188 180 184 138 86 87 157 170 169 166 168 171 178 174 163 166 178 177 173 166 174 153 160 159 141 150 145 147 148 140 140 145 149 144 136 137 132 138 140 138 139 141
223 226 244 235 244 237 228 218 204 32 123 129 176 160 177 177 171 151 195 212 126 152 161 107 117 88 101 103 109 113 123 135 143 154 153 145 188 140 123 89 83 98 110 93 75 76 57 79 109 117 119 130 134 153 171 176 180 192 189 185 178 173 192 182 183 192 189 189 189 174 187 192 186 188 178 170 181 166 158 153 153 153 152 153 145 142 149 154 151 141 141 136 135 152 158 170 156
221 223 234 248 221 3 7 56 17 140 172 150 168 180 183 167 184 150 205 175 161 174 162 165 142 125 119 127 121 124 133 134 149 153 160 146 106 72 74 95 84 79 86 100 93 82 85 59 59 100 110 107 115 121 157 177 164 183 195 181 190 232 202 202 200 204 200 200 197 196 197 196 188 190 185 177 187 180 162 155 155 157 151 152 145 138 138 141 146 136 137 136 155 180 192 205 157
224 245 218 238 268 78 98 36 39 312 53 135 148 166 222 146 195 138 223 168 185 199 166 183 177 156 153 143 136 136 139 144 157 157 149 143 94 119 94 103 112 102 83 91 85 65 80 75 73 60 73 114 130 125 145 153 145 170 189 186 180 208 221 219 212 207 206 210 208 206 205 180 166 255 179 196 179 181 158 160 164 160 154 153 146 146 141 142 146 137 132 151 194 200 201 184 164
187 238 240 267 210 179 148 232 26 274 250 144 184 156 222 130 195 176 215 199 193 225 181 189 192 160 149 145 138 143 148 154 158 161 156 122 117 118 96 71 63 72 97 108 97 96 99 94 81 84 86 40 124 141 152 129 129 171 144 191 319 207 217 217 243 234 217 195 215 228 180 154 140 220 171 192 181 172 166 176 173 180 174 170 167 166 168 155 163 172 170 201 206 205 216 163 206
238 222 258 350 27 262 91 102 70 201 320 207 158 170 204 168 184 215 211 226 182 259 175 135 88 137 141 146 144 153 155 158 161 155 143 125 124 101 112 107 109 99 93 78 87 87 75 114 107 78 81 99 20 130 115 105 112 37 30 27 205 228 208 208 215 225 253 220 225 247 137 232 159 197 190 173 184 163 155 200 184 184 185 184 184 174 184 163 179 167 181 196 211 220 176 164 220
242 213 268 263 343 354 111 120 115 216 196 235 181 209 138 175 211 212 223 235 66 70 48 104 109 130 140 142 150 158 159 161 162 157 146 139 140 127 114 106 101 97 84 86 90 90 94 73 96 111 91 84 310 126 129 105 106 66 21 20 11 326 298 262 208 193 202 246 256 276 219 183 210 180 197 169 185 154 174 218 188 184 184 188 189 183 183 167 191 175 183 195 195 204 170 180 190
254 270 193 202 232 271 108 108 150 233 196 211 356 59 202 189 233 183 230 236 83 32 10 84 108 123 133 146 159 160 163 160 165 150 148 134 124 112 111 105 103 92 90 95 86 86 74 67 69 66 59 20 339 11 65 146 108 106 171 327 3 342 316 314 283 207 178 191 243 241 258 167 159 155 232 188 185 160 200 201 193 184 188 191 186 199 182 180 187 181 185 186 210 186 184 196 184
233 243 138 135 221 101 156 135 186 168 236 337 213 217 230 204 270 118 221 229 78 127 175 161 132 140 143 157 161 160 167 157 159 140 139 130 124 125 112 103 97 94 97 90 94 90 91 88 78 71 69 41 79 320 67 83 112 103 116 126 59 340 328 339 331 315 257 207 191 217 228 180 147 190 223 208 142 194 200 199 201 192 194 194 192 197 192 179 191 184 189 194 192 200 196 192 197
225 255 178 142 214 175 163 181 188 195 199 211 218 231 223 240 337 243 244 181 155 139 211 170 175 158 154 166 162 165 163 159 148 146 136 129 131 129 121 115 118 106 107 109 100 77 71 84 82 84 53 54 115 233 65 65 67 116 126 128 129 137 31 7 335 338 332 314 291 260 256 203 195 167 245 308 170 167 211 176 211 193 194 208 202 198 196 181 191 194 183 201 185 213 198 185 221
188 222 184 204 183 180 181 217 187 198 237 174 243 233 219 202 217 235 227 161 169 191 193 188 171 173 164 159 164 169 160 160 156 151 145 137 144 129 123 132 104 107 109 98 91 93 97 106 90 79 82 22 11 84 26 68 64 79 58 127 134 131 133 115 10 347 333 323 320 323 321 339 14 347 300 316 317 216 172 186 198 195 200 211 199 196 198 202 202 198 186 198 193 202 212 178 174
237 212 194 182 178 209 182 230 180 203 208 210 248 255 240 201 222 252 187 151 174 198 196 182 181 179 170 164 165 165 165 160 163 160 153 152 156 143 146 132 118 121 121 114 99 97 83 71 80 76 79 63 23 63 94 51 21 50 65 49 63 73 160 159 174 179 255 320 325 307 323 317 3 168 278 258 249 248 223 213 209 208 202 203 191 192 194 206 197 203 205 208 209 203 199 203 172
217 219 208 196 207 218 192 213 207 201 216 184 268 272 232 219 225 221 135 170 181 201 195 187 186 177 178 161 173 165 174 167 163 171 160 170 152 143 139 125 139 131 98 105 113 110 106 96 87 86 80 62 69 46 32 58 13 27 49 26 75 334 170 77 343 25 294 271 309 298 303 323 23 251 219 289 279 258 250 246 229 260 214 216 183 202 201 201 208 208 211 231 197 209 232 208 212
230 214 244 188 206 226 198 211 197 203 132 161 196 245 233 216 218 188 158 177 188 200 190 193 182 182 176 166 178 171 170 169 171 178 166 174 149 149 143 142 149 130 126 118 118 112 108 102 103 92 82 81 62 60 38 43 24 38 30 47 62 330 49 164 136 141 248 244 235 277 326 294 296 8 304 240 255 283 290 273 310 289 271 224 195 192 205 212 211 208 196 206 212 221 207 222 219
224 212 226 252 224 232 191 189 173 224 124 197 216 261 273 202 194 148 168 177 187 194 196 190 179 189 174 169 184 177 166 183 174 182 165 172 156 156 147 150 162 133 124 125 122 121 121 118 113 102 94 80 72 62 52 51 50 16 38 34 38 349 36 2 34 24 184 203 280 309 331 331 289 253 268 294 288 261 239 259 257 257 245 29 17 317 242 207 216 217 202 206 198 221 218 205 215
232 201 217 229 250 282 142 179 173 229 146 208 214 257 259 220 159 141 165 176 189 190 200 192 176 193 185 174 192 194 176 183 181 176 170 168 167 161 155 154 157 131 129 134 128 134 129 128 129 115 113 97 75 60 58 49 49 40 55 43 30 11 18 15 25 20 326 343 240 220 170 22 9 310 201 288 283 278 260 232 226 227 268 184 76 66 309 265 225 222 218 214 215 210 226 225 199
216 233 233 227 216 159 184 176 200 217 206 181 218 252 242 210 146 154 177 183 194 204 193 198 185 184 197 195 189 212 194 180 191 181 173 178 174 164 163 154 156 149 138 145 142 141 140 134 141 133 117 110 95 79 61 63 48 63 57 63 33 35 12 16 32 347 325 349 10 336 33 7 322 240 195 352 279 316 320 266 237 234 280 319 178 157 226 253 255 228 219 228 229 230 227 224 201
207 207 246 266 219 217 222 123 212 200 212 207 207 243 258 319 139 166 184 201 195 218 199 194 196 187 202 211 207 197 216 201 196 190 176 183 179 172 171 160 161 160 152 153 150 157 149 151 151 139 130 114 116 110 83 50 65 76 53 77 68 51 63 24 358 340 17 4 348 27 0 341 356 348 57 243 237 60 300 286 273 273 271 255 265 229 223 250 261 271 247 229 234 238 239 251 247
228 195 228 232 234 259 288 237 156 190 190 246 214 226 251 248 173 176 194 210 209 214 220 198 198 206 207 214 221 217 205 209 205 198 185 185 188 173 177 167 167 164 163 164 159 167 158 155 145 139 146 137 140 143 199 190 164 105 61 44 46 25 41 62 349 23 10 325 40 11 11 358 334 4 349 271 233 213 233 278 284 252 230 234 242 228 215 224 250 234 253 274 300 253 247 249 265
316 297 201 254 257 211 231 133 120 208 203 219 241 244 226 241 236 189 187 209 215 215 220 223 216 211 214 220 225 227 228 217 205 204 196 184 191 176 181 172 173 168 168 171 167 171 169 154 157 153 147 143 145 196 204 71 60 49 34 35 33 24 33 20 42 35 343 44 21 350 2 352 3 4 340 317 260 247 254 232 251 304 294 259 243 241 222 214 223 222 231 200 231 276 256 233 245
356 309 334 272 285 272 47 155 182 98 275 258 255 246 253 245 240 220 192 195 214 225 223 221 225 230 232 226 225 235 237 240 229 204 203 187 188 181 180 178 177 176 176 175 175 175 180 170 168 161 147 160 202 144 71 32 21 44 44 48 11 26 20 17 47 48 11 40 0 2 352 356 10 353 336 322 309 268 248 260 257 206 220 251 251 252 243 234 236 233 217 196 229 232 254 248 231
279 279 265 268 248 252 278 50 93 177 259 264 260 259 253 245 241 243 215 197 210 221 228 230 230 231 233 239 243 241 236 231 232 228 197 193 186 182 179 183 180 184 183 180 183 183 181 181 179 159 159 151 134 107 123 109 43 35 14 39 11 23 22 14 6 31 21 68 26 36 348 0 336 316 293 294 271 282 284 268 247 228 221 222 234 246 234 238 244 246 222 241 238 242 243 243 239
245 257 254 241 253 250 108 174 169 253 218 263 263 260 250 253 249 246 253 230 212 209 224 234 239 239 236 237 239 239 239 240 234 225 188 190 185 184 182 184 184 191 185 187 187 190 185 184 188 159 167 156 142 151 169 116 109 65 39 53 26 29 62 37 29 47 39 351 36 0 352 347 344 327 303 282 288 277 264 271 275 270 246 238 226 231 228 223 226 228 227 220 232 240 260 257 237
253 225 240 251 278 305 218 176 232 201 255 273 266 260 254 240 244 247 240 239 241 228 217 226 237 244 240 237 237 244 246 243 240 200 179 191 189 188 184 184 185 187 191 189 190 193 192 185 189 174 161 164 145 141 120 115 112 134 116 101 101 38 57 108 125 116 54 28 340 359 12 357 336 312 316 311 288 274 279 285 289 278 270 245 249 252 231 221 220 215 215 219 223 221 240 237 230
221 256 269 271 264 236 259 56 223 205 242 254 268 268 263 249 238 232 235 238 238 236 237 232 229 234 244 250 256 257 252 229 227 179 187 195 192 192 188 186 184 187 194 195 187 195 196 190 184 171 167 168 150 145 153 161 162 187 173 173 183 171 162 71 60 42 13 358 308 8 19 337 315 313 311 298 295 299 298 288 273 284 282 273 247 248 250 248 236 219 214 215 212 215 226 237 232
246 206 231 270 308 304 273 229 238 239 244 203 233 251 253 225 225 232 227 215 225 229 234 234 230 226 228 235 238 235 232 237 216 208 197 193 191 189 191 188 187 189 193 196 188 195 196 190 183 175 173 166 153 152 155 179 161 142 172 163 130 59 93 65 51 28 11 17 358 28 279 325 312 305 302 300 298 308 312 306 297 280 278 277 265 256 249 244 245 238 221 216 216 218 229 208 235
256 282 177 219 264 282 256 246 234 240 264 165 197 268 298 78 226 202 220 200 213 226 238 241 233 228 230 229 222 216 213 207 216 218 197 189 189 190 189 189 190 190 193 191 192 194 197 195 183 180 176 169 158 153 154 169 175 154 144 131 102 65 85 100 79 104 101 28 96 346 319 281 280 290 291 303 296 289 287 287 289 288 275 271 281 276 262 257 244 237 220 203 224 222 218 224 221
252 92 175 214 240 236 238 245 243 270 313 158 208 248 276 278 260 226 183 204 211 210 217 225 226 221 224 216 209 205 204 205 197 209 203 190 188 190 188 187 187 189 187 188 191 191 195 197 184 181 182 170 163 157 163 178 177 157 154 160 161 142 85 110 147 139 137 155 32 350 295 300 298 273 292 285 298 296 287 281 271 274 279 275 268 271 271 262 257 248 232 214 215 217 214 221 230
43 263 236 212 240 232 235 235 244 246 249 274 221 211 246 253 254 170 166 209 215 222 209 208 216 215 211 213 209 202 202 200 192 197 204 194 189 186 185 183 185 187 188 184 186 188 188 192 185 182 185 170 165 165 162 168 181 156 179 172 166 132 152 156 164 156 141 109 199 94 310 298 249 293 286 274 276 288 292 288 291 277 271 272 270 260 262 272 272 265 248 231 218 222 220 218 228
165 241 217 275 237 240 244 247 247 255 264 254 252 201 249 251 235 186 198 237 234 219 218 207 207 215 209 204 210 213 201 199 191 195 196 196 187 182 182 180 185 188 181 178 183 183 184 184 183 184 184 178 167 169 168 162 159 176 182 158 164 155 163 151 211 114 193 203 185 212 267 250 303 244 265 297 293 287 288 294 290 287 282 277 272 276 284 284 282 277 266 256 237 229 226 221 223
34 244 252 222 228 230 225 248 266 274 253 240 245 231 219 255 252 263 188 195 220 218 209 207 199 204 206 202 206 206 206 195 196 194 189 190 184 181 181 186 186 174 167 182 182 181 179 181 184 188 187 185 172 173 174 164 168 180 177 165 168 161 160 173 181 170 185 237 251 224 242 294 286 287 268 228 250 253 268 283 286 284 287 290 281 275 266 264 262 263 268 265 255 239 233 218 221
223 230 233 237 222 227 237 238 242 253 249 249 240 231 204 246 243 235 271 97 184 231 255 219 197 198 202 198 206 209 208 205 195 198 189 185 179 187 182 185 176 172 177 184 179 178 179 183 187 191 189 188 175 178 175 171 171 176 166 167 171 170 173 178 184 177 183 208 243 248 234 253 237 263 259 252 234 261 274 268 273 282 276 275 279 275 278 268 262 265 264 262 259 248 236 232 218
223 234 238 240 249 224 240 224 233 234 247 251 254 197 209 236 270 307 340 202 206 215 250 231 199 199 202 208 210 217 216 216 205 200 199 192 191 183 178 188 180 181 187 185 180 179 181 184 188 192 191 188 180 179 179 175 175 174 172 174 176 171 187 184 180 190 181 206 214 224 271 267 257 257 254 289 276 267 267 265 264 264 273 277 280 288 292 301 291 269 268 269 266 261 250 230 227
223 232 229 236 248 252 248 248 240 243 230 235 248 212 241 267 266 250 256 214 202 202 228 245 199 202 204 211 208 209 216 220 221 210 206 197 200 193 193 195 191 188 191 186 182 180 182 186 189 194 193 187 183 183 183 181 182 180 176 180 180 177 184 187 201 191 193 223 215 222 234 248 267 264 272 265 280 275 268 277 283 278 276 275 273 275 282 286 283 282 277 269 262 261 260 251 236
232 237 240 246 257 263 266 266 272 276 302 37 115 231 237 232 217 252 232 239 211 203 209 212 217 215 219 228 239 228 211 212 219 220 216 203 193 193 197 198 196 191 196 193 187 184 183 186 188 193 193 188 187 185 185 184 182 180 176 182 181 187 185 188 201 194 196 211 222 238 245 251 252 257 256 262 258 265 268 269 270 275 274 275 277 277 273 273 275 275 272 272 274 269 264 256 246
230 233 257 257 246 250 269 298 300 302 311 278 211 226 231 222 272 203 261 213 220 216 209 207 201 210 212 217 223 237 239 221 214 218 213 204 193 192 198 199 201 197 196 193 195 185 184 185 187 191 195 187 187 186 189 186 185 178 180 178 184 184 190 191 197 188 206 207 236 245 250 253 264 269 266 265 263 263 264 263 262 263 267 270 274 272 272 274 271 268 270 273 270 263 261 263 258
266 251 237 248 268 267 264 256 257 275 266 261 267 246 233 264 268 262 237 229 235 223 219 211 211 204 206 213 216 220 230 230 223 221 217 209 198 190 195 196 200 202 197 198 194 187 181 178 181 185 193 187 185 186 190 189 185 181 178 178 180 181 189 197 200 195 200 217 243 250 255 264 274 274 277 270 269 267 268 268 271 272 272 272 267 273 276 271 270 269 266 267 271 271 264 260 257
263 251 259 282 278 286 273 269 271 256 260 266 260 256 260 248 263 254 250 233 235 242 228 225 217 213 207 208 214 220 222 227 224 220 219 212 204 191 194 197 199 203 211 194 188 187 184 176 176 182 187 188 185 187 191 188 185 181 178 181 182 182 187 193 203 202 206 224 227 240 245 251 254 264 274 280 274 271 267 273 273 274 275 276 274 270 269 272 271 269 271 269 265 266 270 267 259
258 267 287 270 253 244 232 261 259 259 258 269 245 248 249 253 262 254 257 249 236 233 235 230 224 216 218 213 213 216 223 222 222 217 213 211 202 199 198 202 204 206 209 177 168 188 196 176 177 182 186 188 183 183 185 185 184 183 180 181 180 182 188 192 199 204 216 226 232 244 259 265 275 276 272 276 279 275 276 271 270 274 276 275 274 273 272 269 271 272 267 265 265 264 262 263 263
245 265 265 257 269 262 268 252 264 264 269 262 263 262 264 253 265 259 263 272 251 232 241 243 241 228 219 225 222 216 215 216 215 216 210 206 205 204 203 205 210 213 189 152 171 179 182 176 174 179 184 181 176 181 183 185 185 183 177 178 180 187 191 196 199 205 217 226 234 239 246 256 261 270 272 280 283 277 278 279 277 278 274 271 270 272 271 272 270 269 270 265 260 262 263 261 261
248 236 244 252 248 273 285 279 254 255 262 262 277 273 262 261 267 259 252 263 283 263 224 226 239 242 226 227 228 225 218 211 215 216 211 204 204 204 210 211 208 207 145 155 166 176 176 173 176 177 179 177 178 181 184 184 183 180 175 179 179 187 195 198 207 213 224 231 237 240 240 250 256 261 277 278 277 281 282 280 282 276 274 272 271 270 268 267 268 268 268 268 268 264 262 262 260
271 282 280 271 263 249 243 250 243 249 250 264 268 268 274 274 271 260 275 283 269 267 272 256 239 235 239 232 225 213 223 214 212 215 217 217 209 204 209 216 216 212 166 170 172 175 178 175 172 174 177 180 178 181 184 184 184 179 178 181 181 188 196 208 210 217 226 232 235 237 244 261 277 283 283 283 280 276 277 278 277 277 275 271 267 266 268 269 265 263 263 267 267 266 266 267 267